Location: *
(49.8044°N, 4.0558°E)
Time: 18:14:44
(UTC+00:00)

FREGAT/IRIS - Pass Details

Date: 09 April 2020
Orbit: 327 x 333 km, 96.9° (Epoch: 26 May)

Event Time Altitude Azimuth Distance (km) Brightness Sun altitude
Rises 19:03:13 0° 163° (SSE) 2,121 6.0 -6.2°
Reaches altitude 10° 19:05:07 10° 162° (SSE) 1,289 4.9 -6.5°
Maximum altitude 19:07:51 76° 77° (ENE) 360 2.3 -6.9°
Drops below altitude 10° 19:10:37 10° 350° (N) 1,308 5.7 -7.3°
Sets 19:12:33 0° 349° (N) 2,157 6.9 -7.6°
